| time (UTC) | temp F | wind direction | speed MPH | gust MPH | rain 1hr in | rain 24hr in | rain mn in | humidity % | barometer mb |
| 20260831213025 | 98 | 197 | 0.0 | 5.0 | 0.00 | 0.00 | 0.00 | 34 | 1015.7 |
| 20260831211516 | 99 | 342 | 1.0 | 8.0 | 0.00 | 0.00 | 0.00 | 33 | 1015.7 |
| 20260831210014 | 97 | 11 | 1.0 | 5.0 | 0.00 | 0.00 | 0.00 | 33 | 1015.9 |
| 20260831204508 | 97 | 288 | 1.0 | 3.0 | 0.00 | 0.00 | 0.00 | 35 | 1016.0 |
| 20260831203013 | 97 | 352 | 1.0 | 5.0 | 0.00 | 0.00 | 0.00 | 36 | 1016.3 |
| 20260831201517 | 99 | 5 | 1.0 | 5.0 | 0.00 | 0.00 | 0.00 | 33 | 1016.3 |
| 20260831200010 | 99 | 309 | 1.0 | 7.0 | 0.00 | 0.00 | 0.00 | 34 | 1016.6 |
| 20260831194516 | 99 | 183 | 3.0 | 9.0 | 0.00 | 0.00 | 0.00 | 33 | 1016.7 |
| 20260831193012 | 99 | 253 | 2.0 | 8.0 | 0.00 | 0.00 | 0.00 | 32 | 1017.0 |
| 20260831191519 | 97 | 333 | 2.0 | 7.0 | 0.00 | 0.00 | 0.00 | 34 | 1017.1 |
| 20260831190023 | 97 | 32 | 1.0 | 5.0 | 0.00 | 0.00 | 0.00 | 36 | 1017.2 |
| 20260831184518 | 96 | 212 | 1.0 | 3.0 | 0.00 | 0.00 | 0.00 | 35 | 1017.3 |
| 20260831183015 | 98 | 36 | 1.0 | 3.0 | 0.00 | 0.00 | 0.00 | 36 | 1017.7 |
| 20260831181515 | 97 | 344 | 2.0 | 6.0 | 0.00 | 0.00 | 0.00 | 34 | 1017.8 |
| 20260831180032 | 97 | 171 | 1.0 | 6.0 | 0.00 | 0.00 | 0.00 | 36 | 1017.9 |
| 20260831174524 | 96 | 18 | 3.0 | 12.0 | 0.00 | 0.00 | 0.00 | 36 | 1018.1 |
| 20260831173023 | 96 | 347 | 1.0 | 5.0 | 0.00 | 0.00 | 0.00 | 35 | 1018.2 |
| 20260831171516 | 96 | 180 | 2.0 | 7.0 | 0.00 | 0.00 | 0.00 | 38 | 1018.3 |
| 20260831170017 | 96 | 157 | 2.0 | 5.0 | 0.00 | 0.00 | 0.00 | 38 | 1018.5 |
| 20260831164513 | 94 | 92 | 2.0 | 6.0 | 0.00 | 0.00 | 0.00 | 41 | 1018.5 |
| 20260831163006 | 94 | 173 | 3.0 | 9.0 | 0.00 | 0.00 | 0.00 | 42 | 1018.6 |
| 20260831161510 | 93 | 178 | 3.0 | 6.0 | 0.00 | 0.00 | 0.00 | 46 | 1018.5 |
| 20260831160004 | 91 | 205 | 2.0 | 6.0 | 0.00 | 0.00 | 0.00 | 48 | 1018.8 |
| 20260831154513 | 90 | 284 | 1.0 | 6.0 | 0.00 | 0.00 | 0.00 | 51 | 1018.8 |
| 20260831153005 | 89 | 5 | 1.0 | 9.0 | 0.00 | 0.00 | 0.00 | 53 | 1018.7 |
| 20260831151513 | 87 | 160 | 3.0 | 9.0 | 0.00 | 0.00 | 0.00 | 55 | 1018.7 |
| 20260831150014 | 85 | 244 | 0.0 | 4.0 | 0.00 | 0.00 | 0.00 | 60 | 1018.8 |
| 20260831144503 | 84 | 305 | 1.0 | 6.0 | 0.00 | 0.00 | 0.00 | 61 | 1018.8 |
| 20260831143005 | 82 | 192 | 1.0 | 5.0 | 0.00 | 0.00 | 0.00 | 63 | 1018.9 |
| 20260831141511 | 79 | 126 | 0.0 | 3.0 | 0.00 | 0.00 | 0.00 | 68 | 1019.0 |
| 20260831140009 | 77 | 191 | 0.0 | 2.0 | 0.00 | 0.00 | 0.00 | 73 | 1019.0 |
| 20260831134508 | 75 | 93 | 0.0 | 2.0 | 0.00 | 0.00 | 0.00 | 75 | 1018.9 |
| 20260831133003 | 74 | 76 | 0.0 | 1.0 | 0.00 | 0.00 | 0.00 | 77 | 1018.9 |
| 20260831131511 | 71 | 29 | 0.0 | 1.0 | 0.00 | 0.00 | 0.00 | 82 | 1018.8 |
| 20260831130010 | 69 | 29 | 0.0 | 0.0 | 0.00 | 0.00 | 0.00 | 85 | 1018.5 |
| 20260831124508 | 67 | 29 | 0.0 | 0.0 | 0.00 | 0.00 | 0.00 | 86 | 1018.3 |
| 20260831123017 | 67 | 29 | 0.0 | 1.0 | 0.00 | 0.00 | 0.00 | 87 | 1018.1 |
| 20260831121520 | 67 | 29 | 0.0 | 1.0 | 0.00 | 0.00 | 0.00 | 87 | 1018.0 |
| 20260831120028 | 67 | 29 | 0.0 | 0.0 | 0.00 | 0.00 | 0.00 | 86 | 1017.8 |
| 20260831114518 | 67 | 29 | 0.0 | 0.0 | 0.00 | 0.00 | 0.00 | 85 | 1017.6 |
| 20260831113022 | 68 | 30 | 0.0 | 1.0 | 0.00 | 0.00 | 0.00 | 84 | 1017.4 |
| 20260831111509 | 68 | 30 | 0.0 | 1.0 | 0.00 | 0.00 | 0.00 | 84 | 1017.3 |
| 20260831110008 | 68 | 30 | 0.0 | 1.0 | 0.00 | 0.00 | 0.00 | 84 | 1017.3 |
| 20260831104531 | 68 | 27 | 0.0 | 1.0 | 0.00 | 0.00 | 0.00 | 83 | 1017.2 |
| 20260831103023 | 68 | 67 | 0.0 | 1.0 | 0.00 | 0.00 | 0.00 | 82 | 1017.0 |
| 20260831101526 | 69 | 67 | 0.0 | 0.0 | 0.00 | 0.00 | 0.00 | 81 | 1017.0 |
| 20260831100026 | 70 | 67 | 0.0 | 1.0 | 0.00 | 0.00 | 0.00 | 77 | 1017.0 |
| 20260831094516 | 70 | 67 | 0.0 | 1.0 | 0.00 | 0.00 | 0.00 | 77 | 1016.9 |
| 20260831093013 | 70 | 67 | 0.0 | 0.0 | 0.00 | 0.00 | 0.00 | 77 | 1016.8 |
| 20260831091529 | 70 | 67 | 0.0 | 0.0 | 0.00 | 0.00 | 0.00 | 78 | 1016.8 |
| 20260831090029 | 70 | 67 | 0.0 | 1.0 | 0.00 | 0.00 | 0.00 | 77 | 1016.7 |
| 20260831084512 | 71 | 67 | 0.0 | 0.0 | 0.00 | 0.00 | 0.00 | 74 | 1016.6 |
| 20260831083022 | 71 | 67 | 0.0 | 1.0 | 0.00 | 0.00 | 0.00 | 73 | 1016.7 |
| 20260831081533 | 72 | 67 | 0.0 | 2.0 | 0.00 | 0.00 | 0.00 | 73 | 1016.4 |
| 20260831080012 | 72 | 352 | 0.0 | 1.0 | 0.00 | 0.00 | 0.00 | 72 | 1016.3 |
| 20260831074533 | 74 | 352 | 0.0 | 2.0 | 0.00 | 0.00 | 0.00 | 68 | 1016.5 |
| 20260831073021 | 76 | 360 | 0.0 | 2.0 | 0.00 | 0.00 | 0.00 | 64 | 1016.6 |
| 20260831071526 | 77 | 331 | 0.0 | 3.0 | 0.00 | 0.00 | 0.00 | 60 | 1016.5 |
| 20260831070040 | 78 | 338 | 1.0 | 4.0 | 0.00 | 0.00 | 0.00 | 60 | 1016.6 |
| 20260831064524 | 78 | 360 | 1.0 | 4.0 | 0.00 | 0.00 | 0.00 | 60 | 1016.8 |
| 20260831063015 | 78 | 115 | 1.0 | 6.0 | 0.00 | 0.00 | 0.00 | 58 | 1016.8 |
| 20260831061513 | 78 | 51 | 0.0 | 3.0 | 0.00 | 0.00 | 0.00 | 59 | 1016.8 |
| 20260831060004 | 79 | 88 | 1.0 | 4.0 | 0.00 | 0.00 | 0.00 | 58 | 1016.9 |
| 20260831054508 | 78 | 163 | 0.0 | 3.0 | 0.00 | 0.00 | 0.00 | 58 | 1016.7 |
| 20260831053004 | 79 | 338 | 1.0 | 6.0 | 0.00 | 0.00 | 0.00 | 57 | 1016.5 |
| 20260831051503 | 79 | 211 | 3.0 | 9.0 | 0.00 | 0.00 | 0.00 | 58 | 1016.6 |
| 20260831050004 | 79 | 284 | 1.0 | 4.0 | 0.00 | 0.00 | 0.00 | 58 | 1016.4 |
| 20260831044508 | 79 | 35 | 1.0 | 5.0 | 0.00 | 0.00 | 0.00 | 59 | 1016.4 |
| 20260831043011 | 78 | 53 | 0.0 | 3.0 | 0.00 | 0.00 | 0.00 | 61 | 1016.2 |
| 20260831041517 | 79 | 281 | 1.0 | 5.0 | 0.00 | 0.00 | 0.00 | 61 | 1016.2 |
| 20260831040024 | 79 | 119 | 0.0 | 2.0 | 0.00 | 0.00 | 0.00 | 63 | 1016.3 |
| 20260831034505 | 79 | 326 | 0.0 | 2.0 | 0.00 | 0.00 | 0.00 | 63 | 1016.2 |
| 20260831033007 | 79 | 105 | 0.0 | 2.0 | 0.00 | 0.00 | 0.00 | 63 | 1016.0 |
| 20260831031506 | 79 | 80 | 0.0 | 4.0 | 0.00 | 0.00 | 0.00 | 63 | 1015.9 |
| 20260831030009 | 79 | 360 | 1.0 | 2.0 | 0.00 | 0.00 | 0.00 | 64 | 1015.9 |
| 20260831024507 | 79 | 55 | 0.0 | 2.0 | 0.00 | 0.00 | 0.00 | 64 | 1015.9 |
| 20260831023015 | 80 | 345 | 0.0 | 2.0 | 0.00 | 0.00 | 0.00 | 61 | 1015.8 |
| 20260831021520 | 81 | 94 | 0.0 | 2.0 | 0.00 | 0.00 | 0.00 | 59 | 1015.7 |
| 20260831020008 | 82 | 334 | 1.0 | 3.0 | 0.00 | 0.00 | 0.00 | 57 | 1015.5 |
| 20260831014513 | 83 | 76 | 0.0 | 3.0 | 0.00 | 0.00 | 0.00 | 55 | 1015.3 |
| 20260831013006 | 85 | 94 | 0.0 | 2.0 | 0.00 | 0.00 | 0.00 | 52 | 1015.0 |
| 20260831011512 | 86 | 75 | 1.0 | 3.0 | 0.00 | 0.00 | 0.00 | 50 | 1015.1 |
| 20260831010028 | 86 | 352 | 0.0 | 2.0 | 0.00 | 0.00 | 0.00 | 51 | 1015.0 |
| 20260831004510 | 88 | 155 | 0.0 | 3.0 | 0.00 | 0.00 | 0.00 | 50 | 1015.0 |
| 20260831003016 | 89 | 213 | 0.0 | 5.0 | 0.00 | 0.00 | 0.00 | 50 | 1015.1 |
| 20260831001518 | 89 | 316 | 0.0 | 3.0 | 0.00 | 0.00 | 0.00 | 49 | 1014.9 |
| 20260831000015 | 91 | 207 | 1.0 | 5.0 | 0.00 | 0.00 | 0.00 | 45 | 1014.8 |
| 20260830234517 | 93 | 279 | 2.0 | 6.0 | 0.00 | 0.00 | 0.00 | 41 | 1015.0 |
| 20260830233018 | 94 | 330 | 2.0 | 8.0 | 0.00 | 0.00 | 0.00 | 39 | 1014.9 |
| 20260830231526 | 95 | 175 | 1.0 | 4.0 | 0.00 | 0.00 | 0.00 | 34 | 1014.9 |
| 20260830230013 | 96 | 297 | 0.0 | 5.0 | 0.00 | 0.00 | 0.00 | 35 | 1014.9 |
| 20260830224519 | 97 | 200 | 1.0 | 5.0 | 0.00 | 0.00 | 0.00 | 32 | 1014.9 |
| 20260830223027 | 96 | 296 | 0.0 | 7.0 | 0.00 | 0.00 | 0.00 | 34 | 1014.9 |
| 20260830221526 | 97 | 250 | 2.0 | 7.0 | 0.00 | 0.00 | 0.00 | 32 | 1014.9 |
| 20260830220014 | 97 | 309 | 0.0 | 6.0 | 0.00 | 0.00 | 0.00 | 34 | 1014.9 |
| 20260830214518 | 97 | 205 | 1.0 | 8.0 | 0.00 | 0.00 | 0.00 | 33 | 1014.9 |